| time (UTC) | temp F | wind direction | speed MPH | gust MPH | rain 1hr in | rain 24hr in | rain mn in | humidity % | barometer mb |
| 20260506072703 | 54 | 0 | 0.0 | 0.0 | 0.00 | 0.00 | 0.00 | 67 | 1027.4 |
| 20260506071803 | 54 | 360 | 0.0 | 3.0 | 0.00 | 0.00 | 0.00 | 66 | 1027.4 |
| 20260506070903 | 55 | 360 | 1.0 | 5.0 | 0.00 | 0.00 | 0.00 | 64 | 1027.4 |
| 20260506061824 | 56 | 360 | 1.0 | 3.0 | 0.00 | 0.00 | 0.00 | 56 | 1027.4 |
| 20260506060903 | 56 | 360 | 0.0 | 4.0 | 0.00 | 0.00 | 0.00 | 57 | 1027.4 |
| 20260506050924 | 55 | 360 | 2.0 | 8.0 | 0.00 | 0.00 | 0.00 | 58 | 1027.4 |
| 20260506044503 | 55 | 360 | 0.0 | 2.0 | 0.00 | 0.00 | 0.00 | 58 | 1027.4 |
| 20260506043603 | 55 | 360 | 0.0 | 2.0 | 0.00 | 0.00 | 0.00 | 57 | 1027.4 |
| 20260506042703 | 55 | 0 | 0.0 | 0.0 | 0.00 | 0.00 | 0.00 | 58 | 1027.4 |
| 20260506041803 | 55 | 360 | 0.0 | 1.0 | 0.00 | 0.00 | 0.00 | 58 | 1027.4 |
| 20260506040903 | 55 | 360 | 0.0 | 1.0 | 0.00 | 0.00 | 0.00 | 58 | 1027.4 |
| 20260506040004 | 55 | 360 | 0.0 | 1.0 | 0.00 | 0.00 | 0.00 | 58 | 1027.4 |
| 20260506035403 | 55 | 0 | 0.0 | 0.0 | 0.00 | 0.00 | 0.00 | 58 | 1027.4 |
| 20260506034503 | 55 | 0 | 0.0 | 0.0 | 0.00 | 0.00 | 0.00 | 58 | 1027.4 |
| 20260506033603 | 55 | 360 | 0.0 | 2.0 | 0.00 | 0.00 | 0.00 | 58 | 1027.4 |
| 20260506032703 | 55 | 360 | 0.0 | 3.0 | 0.00 | 0.00 | 0.00 | 57 | 1027.4 |
| 20260506031803 | 55 | 360 | 0.0 | 2.0 | 0.00 | 0.00 | 0.00 | 57 | 1027.4 |
| 20260506030903 | 55 | 360 | 0.0 | 2.0 | 0.00 | 0.00 | 0.00 | 56 | 1027.4 |
| 20260506030003 | 56 | 360 | 0.0 | 2.0 | 0.00 | 0.00 | 0.00 | 54 | 1027.4 |
| 20260506025403 | 56 | 360 | 0.0 | 2.0 | 0.00 | 0.00 | 0.00 | 53 | 1027.4 |
| 20260506024503 | 56 | 360 | 1.0 | 3.0 | 0.00 | 0.00 | 0.00 | 52 | 1027.4 |
| 20260506023603 | 57 | 360 | 1.0 | 5.0 | 0.00 | 0.00 | 0.00 | 51 | 1027.4 |
| 20260506022703 | 58 | 360 | 1.0 | 6.0 | 0.00 | 0.00 | 0.00 | 50 | 1027.4 |
| 20260506021803 | 58 | 360 | 1.0 | 4.0 | 0.00 | 0.00 | 0.00 | 49 | 1027.4 |
| 20260506020903 | 59 | 360 | 1.0 | 5.0 | 0.00 | 0.00 | 0.00 | 48 | 1027.4 |
| 20260506020003 | 60 | 360 | 1.0 | 10.0 | 0.00 | 0.00 | 0.00 | 47 | 1027.4 |
| 20260506015403 | 60 | 360 | 1.0 | 2.0 | 0.00 | 0.00 | 0.00 | 46 | 1027.4 |
| 20260506014503 | 60 | 360 | 1.0 | 5.0 | 0.00 | 0.00 | 0.00 | 45 | 1027.4 |
| 20260506013624 | 61 | 360 | 0.0 | 3.0 | 0.00 | 0.00 | 0.00 | 46 | 1027.4 |
| 20260506012703 | 61 | 2 | 0.0 | 3.0 | 0.00 | 0.00 | 0.00 | 45 | 1027.4 |
| 20260506011824 | 62 | 130 | 1.0 | 5.0 | 0.00 | 0.00 | 0.00 | 46 | 1027.4 |
| 20260506010903 | 62 | 138 | 0.0 | 7.0 | 0.00 | 0.00 | 0.00 | 45 | 1027.4 |
| 20260506010003 | 62 | 121 | 0.0 | 3.0 | 0.00 | 0.00 | 0.00 | 45 | 1027.4 |
| 20260506005424 | 62 | 128 | 0.0 | 3.0 | 0.00 | 0.00 | 0.00 | 47 | 1027.4 |
| 20260506004504 | 62 | 127 | 1.0 | 9.0 | 0.00 | 0.00 | 0.00 | 43 | 1027.4 |
| 20260506003603 | 62 | 160 | 0.0 | 5.0 | 0.00 | 0.00 | 0.00 | 44 | 1027.4 |
| 20260506002703 | 62 | 160 | 0.0 | 2.0 | 0.00 | 0.00 | 0.00 | 44 | 1027.4 |
| 20260506001824 | 62 | 177 | 1.0 | 5.0 | 0.00 | 0.00 | 0.00 | 45 | 1027.4 |
| 20260506000903 | 62 | 188 | 1.0 | 4.0 | 0.00 | 0.00 | 0.00 | 46 | 1027.4 |
| 20260506000003 | 63 | 357 | 0.0 | 3.0 | 0.00 | 0.00 | 0.00 | 44 | 1027.4 |
| 20260505235403 | 63 | 199 | 0.0 | 3.0 | 0.00 | 0.00 | 0.00 | 44 | 1027.4 |
| 20260505234524 | 63 | 222 | 1.0 | 6.0 | 0.00 | 0.00 | 0.00 | 45 | 1027.4 |
| 20260505233603 | 63 | 358 | 0.0 | 3.0 | 0.00 | 0.00 | 0.00 | 47 | 1027.4 |
| 20260505232703 | 62 | 360 | 1.0 | 6.0 | 0.00 | 0.00 | 0.00 | 48 | 1027.4 |
| 20260505231803 | 61 | 276 | 1.0 | 5.0 | 0.00 | 0.00 | 0.00 | 49 | 1027.4 |
| 20260505230903 | 60 | 208 | 1.0 | 6.0 | 0.00 | 0.00 | 0.00 | 51 | 1027.4 |
| 20260505230003 | 60 | 360 | 0.0 | 2.0 | 0.00 | 0.00 | 0.00 | 54 | 1027.4 |
| 20260505225403 | 60 | 360 | 1.0 | 5.0 | 0.00 | 0.00 | 0.00 | 55 | 1027.4 |
| 20260505224503 | 58 | 7 | 1.0 | 8.0 | 0.00 | 0.00 | 0.00 | 60 | 1027.4 |
| 20260505223603 | 57 | 136 | 0.0 | 1.0 | 0.00 | 0.00 | 0.00 | 59 | 1027.4 |
| 20260505222703 | 57 | 139 | 1.0 | 7.0 | 0.00 | 0.00 | 0.00 | 52 | 1027.4 |
| 20260505221803 | 58 | 129 | 1.0 | 5.0 | 0.00 | 0.00 | 0.00 | 55 | 1027.4 |
| 20260505220903 | 58 | 125 | 1.0 | 7.0 | 0.00 | 0.00 | 0.00 | 53 | 1027.4 |
| 20260505220003 | 60 | 139 | 0.0 | 4.0 | 0.00 | 0.00 | 0.00 | 51 | 1027.4 |
| 20260505215403 | 60 | 140 | 0.0 | 4.0 | 0.00 | 0.00 | 0.00 | 48 | 1027.4 |
| 20260505214503 | 60 | 141 | 0.0 | 1.0 | 0.00 | 0.00 | 0.00 | 47 | 1027.4 |
| 20260505213624 | 59 | 140 | 0.0 | 2.0 | 0.00 | 0.00 | 0.00 | 48 | 1027.4 |
| 20260505212703 | 59 | 140 | 0.0 | 2.0 | 0.00 | 0.00 | 0.00 | 49 | 1027.4 |
| 20260505211803 | 59 | 142 | 1.0 | 4.0 | 0.00 | 0.00 | 0.00 | 49 | 1027.4 |
| 20260505210903 | 58 | 142 | 0.0 | 3.0 | 0.00 | 0.00 | 0.00 | 52 | 1027.4 |
| 20260505210003 | 58 | 144 | 0.0 | 4.0 | 0.00 | 0.00 | 0.00 | 53 | 1027.4 |
| 20260505205424 | 58 | 137 | 1.0 | 4.0 | 0.00 | 0.00 | 0.00 | 53 | 1027.4 |
| 20260505204503 | 58 | 155 | 1.0 | 5.0 | 0.00 | 0.00 | 0.00 | 51 | 1027.4 |
| 20260505203603 | 58 | 161 | 1.0 | 5.0 | 0.00 | 0.00 | 0.00 | 51 | 1027.4 |
| 20260505202703 | 58 | 169 | 1.0 | 4.0 | 0.00 | 0.00 | 0.00 | 52 | 1027.4 |
| 20260505201803 | 57 | 139 | 1.0 | 6.0 | 0.00 | 0.00 | 0.00 | 52 | 1027.4 |
| 20260505200924 | 57 | 121 | 1.0 | 7.0 | 0.00 | 0.00 | 0.00 | 53 | 1027.4 |
| 20260505200003 | 57 | 113 | 2.0 | 10.0 | 0.00 | 0.00 | 0.00 | 50 | 1027.4 |
| 20260505195403 | 57 | 141 | 1.0 | 6.0 | 0.00 | 0.00 | 0.00 | 51 | 1027.4 |
| 20260505194503 | 56 | 143 | 2.0 | 11.0 | 0.00 | 0.00 | 0.00 | 51 | 1027.4 |
| 20260505193603 | 57 | 161 | 2.0 | 11.0 | 0.00 | 0.00 | 0.00 | 50 | 1027.4 |
| 20260505192703 | 57 | 152 | 1.0 | 6.0 | 0.00 | 0.00 | 0.00 | 53 | 1027.4 |
| 20260505191803 | 56 | 155 | 3.0 | 8.0 | 0.00 | 0.00 | 0.00 | 53 | 1027.4 |
| 20260505190903 | 56 | 158 | 3.0 | 12.0 | 0.00 | 0.00 | 0.00 | 52 | 1027.4 |
| 20260505190003 | 57 | 161 | 2.0 | 7.0 | 0.00 | 0.00 | 0.00 | 51 | 1027.4 |
| 20260505185403 | 58 | 161 | 2.0 | 9.0 | 0.00 | 0.00 | 0.00 | 51 | 1027.4 |
| 20260505184503 | 58 | 2 | 3.0 | 9.0 | 0.00 | 0.00 | 0.00 | 51 | 1027.4 |
| 20260505183603 | 58 | 360 | 2.0 | 8.0 | 0.00 | 0.00 | 0.00 | 53 | 1027.4 |
| 20260505182703 | 56 | 360 | 4.0 | 11.0 | 0.00 | 0.00 | 0.00 | 54 | 1027.4 |
| 20260505181803 | 55 | 360 | 3.0 | 10.0 | 0.00 | 0.00 | 0.00 | 56 | 1027.4 |
| 20260505180903 | 55 | 360 | 3.0 | 8.0 | 0.00 | 0.00 | 0.00 | 56 | 1027.4 |
| 20260505180003 | 54 | 360 | 2.0 | 5.0 | 0.00 | 0.00 | 0.00 | 57 | 1027.4 |
| 20260505175403 | 54 | 360 | 2.0 | 8.0 | 0.00 | 0.00 | 0.00 | 59 | 1027.4 |
| 20260505174524 | 54 | 360 | 3.0 | 12.0 | 0.00 | 0.00 | 0.00 | 58 | 1027.4 |
| 20260505173603 | 53 | 360 | 3.0 | 15.0 | 0.00 | 0.00 | 0.00 | 59 | 1027.4 |
| 20260505172703 | 53 | 360 | 2.0 | 8.0 | 0.00 | 0.00 | 0.00 | 60 | 1027.4 |
| 20260505171803 | 53 | 360 | 3.0 | 8.0 | 0.00 | 0.00 | 0.00 | 61 | 1027.4 |
| 20260505170924 | 52 | 360 | 3.0 | 11.0 | 0.00 | 0.00 | 0.00 | 61 | 1027.4 |
| 20260505170024 | 52 | 360 | 3.0 | 13.0 | 0.00 | 0.00 | 0.00 | 62 | 1027.4 |
| 20260505165403 | 52 | 360 | 3.0 | 13.0 | 0.00 | 0.00 | 0.00 | 62 | 1027.4 |
| 20260505164524 | 52 | 360 | 4.0 | 13.0 | 0.00 | 0.00 | 0.00 | 61 | 1027.4 |
| 20260505163603 | 52 | 360 | 3.0 | 8.0 | 0.00 | 0.00 | 0.00 | 63 | 1027.4 |
| 20260505162704 | 53 | 360 | 3.0 | 8.0 | 0.00 | 0.00 | 0.00 | 63 | 1027.4 |
| 20260505161824 | 53 | 360 | 3.0 | 5.0 | 0.00 | 0.00 | 0.00 | 63 | 1027.4 |
| 20260505160924 | 54 | 360 | 2.0 | 8.0 | 0.00 | 0.00 | 0.00 | 59 | 1027.4 |
| 20260505152703 | 53 | 360 | 2.0 | 12.0 | 0.00 | 0.00 | 0.00 | 59 | 1027.4 |
| 20260505151803 | 53 | 360 | 4.0 | 12.0 | 0.00 | 0.00 | 0.00 | 59 | 1027.4 |
| 20260505150903 | 53 | 360 | 3.0 | 10.0 | 0.00 | 0.00 | 0.00 | 58 | 1027.4 |
| 20260505124503 | 57 | 360 | 1.0 | 3.0 | 0.00 | 0.00 | 0.00 | 62 | 1027.4 |
| 20260505123603 | 57 | 360 | 1.0 | 3.0 | 0.00 | 0.00 | 0.00 | 61 | 1027.4 |
| 20260505122703 | 57 | 360 | 1.0 | 5.0 | 0.00 | 0.00 | 0.00 | 60 | 1027.4 |
| 20260505121803 | 57 | 360 | 0.0 | 3.0 | 0.00 | 0.00 | 0.00 | 60 | 1027.4 |
| 20260505120903 | 57 | 360 | 0.0 | 4.0 | 0.00 | 0.00 | 0.00 | 60 | 1027.4 |
| 20260505120004 | 57 | 360 | 0.0 | 4.0 | 0.00 | 0.00 | 0.00 | 61 | 1027.4 |
| 20260505115403 | 58 | 360 | 1.0 | 6.0 | 0.00 | 0.00 | 0.00 | 62 | 1027.4 |
| 20260505114503 | 58 | 360 | 1.0 | 4.0 | 0.00 | 0.00 | 0.00 | 62 | 1027.4 |
| 20260505113603 | 58 | 360 | 1.0 | 4.0 | 0.00 | 0.00 | 0.00 | 63 | 1027.4 |
| 20260505112703 | 58 | 360 | 1.0 | 4.0 | 0.00 | 0.00 | 0.00 | 62 | 1027.4 |
| 20260505111803 | 58 | 360 | 2.0 | 6.0 | 0.00 | 0.00 | 0.00 | 62 | 1027.4 |
| 20260505110903 | 58 | 360 | 2.0 | 6.0 | 0.00 | 0.00 | 0.00 | 62 | 1027.4 |
| 20260505101803 | 58 | 360 | 1.0 | 8.0 | 0.00 | 0.00 | 0.00 | 60 | 1027.4 |
| 20260505100903 | 58 | 360 | 1.0 | 8.0 | 0.00 | 0.00 | 0.00 | 61 | 1027.4 |
| 20260505100003 | 58 | 360 | 0.0 | 3.0 | 0.00 | 0.00 | 0.00 | 60 | 1027.4 |
| 20260505095424 | 58 | 360 | 0.0 | 1.0 | 0.00 | 0.00 | 0.00 | 60 | 1027.4 |
| 20260505094503 | 57 | 360 | 1.0 | 3.0 | 0.00 | 0.00 | 0.00 | 61 | 1027.4 |
| 20260505093603 | 58 | 360 | 1.0 | 8.0 | 0.00 | 0.00 | 0.00 | 61 | 1027.4 |
| 20260505092703 | 58 | 360 | 1.0 | 10.0 | 0.00 | 0.00 | 0.00 | 60 | 1027.4 |
| 20260505091803 | 58 | 360 | 1.0 | 6.0 | 0.00 | 0.00 | 0.00 | 59 | 1027.4 |
| 20260505090924 | 58 | 360 | 0.0 | 5.0 | 0.00 | 0.00 | 0.00 | 58 | 1027.4 |
| 20260505090004 | 58 | 360 | 0.0 | 2.0 | 0.00 | 0.00 | 0.00 | 59 | 1027.4 |
| 20260505085403 | 58 | 360 | 0.0 | 2.0 | 0.00 | 0.00 | 0.00 | 59 | 1027.4 |
| 20260505084524 | 58 | 360 | 0.0 | 1.0 | 0.00 | 0.00 | 0.00 | 59 | 1027.4 |
| 20260505083624 | 58 | 360 | 0.0 | 3.0 | 0.00 | 0.00 | 0.00 | 59 | 1027.4 |
| 20260505082703 | 58 | 360 | 0.0 | 3.0 | 0.00 | 0.00 | 0.00 | 60 | 1027.4 |
| 20260505081803 | 58 | 360 | 0.0 | 2.0 | 0.00 | 0.00 | 0.00 | 60 | 1027.4 |
| 20260505080903 | 57 | 360 | 1.0 | 5.0 | 0.00 | 0.00 | 0.00 | 60 | 1027.4 |